Theta_e
279 279 280 281 281 280 280 281 281 281 282 282 282 283 283 284 284 283 284 284 285 286 288 289 291 292 293 294 298 300 304 306 299 291 292 292 293 293 293 295 296 297 296
278 278 279 280 280 280 280 281 281 281 282 282 282 282 283 283 283 283 283 283 284 285 287 289 290 292 293 293 294 299 299 305 303 293 288 288 287 292 292 292 292 294 294
278 278 279 279 280 280 280 281 281 281 281 282 282 282 282 282 282 282 282 283 284 285 286 288 288 289 291 292 294 295 298 300 300 294 287 284 284 286 287 288 288 290 291
279 279 279 279 280 280 280 280 281 281 282 282 282 282 283 283 283 282 282 282 283 284 286 286 287 288 289 290 291 292 294 296 296 293 288 284 285 286 285 284 284 286 287
279 279 280 280 280 279 280 280 281 281 282 282 282 282 283 283 283 283 282 282 282 283 283 284 285 286 286 287 289 291 291 292 292 290 287 285 283 282 284 284 284 284 286
280 280 280 281 281 280 281 281 281 281 282 282 282 282 283 283 283 282 281 281 281 281 281 282 283 284 285 284 285 286 288 289 290 289 288 286 284 284 284 283 281 281 283
280 281 281 281 281 281 280 280 280 280 280 280 280 281 282 282 281 280 280 281 280 280 281 281 282 282 282 284 284 283 285 286 287 288 288 286 285 284 284 282 282 282 281
281 282 282 282 282 281 280 280 280 280 281 280 280 280 281 281 281 280 279 279 279 279 280 280 280 280 280 279 282 282 282 282 284 285 287 287 287 284 283 284 283 281 278
282 281 281 281 280 280 279 280 280 280 281 281 280 280 280 281 281 280 280 280 280 280 280 280 280 280 280 280 281 281 280 280 281 282 282 282 283 283 284 284 282 282 281
282 281 280 280 279 279 279 279 279 279 279 279 279 279 280 280 281 282 280 280 280 280 280 280 281 281 280 280 280 281 280 279 279 278 280 280 282 281 281 282 282 284 284
283 281 280 280 280 279 279 279 279 278 278 278 279 279 279 280 280 281 282 280 279 280 280 280 280 281 281 280 280 280 280 279 279 279 279 279 279 279 279 279 279 281 282
283 282 281 280 280 279 279 279 278 278 278 279 279 279 280 280 280 280 280 282 281 280 280 279 279 279 279 281 281 280 279 279 280 280 280 280 279 279 279 279 279 279 279
283 282 282 281 279 279 278 279 278 278 278 279 280 280 281 281 280 279 279 279 279 281 281 280 280 280 280 280 280 281 281 280 281 281 282 282 281 280 280 279 278 278 278
282 282 282 281 280 279 278 278 278 279 280 280 280 280 280 281 280 279 279 279 278 278 278 278 278 279 280 280 279 279 279 280 280 281 281 281 280 279 279 278 278 278 278
279 280 280 280 280 279 278 278 278 279 279 281 281 281 281 281 280 280 279 280 281 281 281 281 280 280 280 280 280 280 279 279 279 279 279 279 279 279 278 278 277 277 277
279 279 280 281 281 279 279 279 279 279 279 279 280 280 279 279 279 280 281 281 282 283 283 282 282 282 282 282 282 281 281 280 279 279 279 279 279 279 279 279 278 276 276
276 278 280 282 281 281 280 279 279 280 280 280 280 280 281 281 281 282 282 282 282 282 282 283 284 284 284 283 283 282 281 281 280 279 278 278 278 278 278 278 277 278 276
275 276 277 279 281 281 281 280 279 279 280 280 279 278 278 279 279 279 279 279 279 280 281 282 282 282 281 281 281 281 280 280 279 278 278 277 277 277 277 277 277 277 277
274 276 278 278 278 278 278 279 278 278 278 278 277 277 276 276 275 276 277 277 278 278 278 278 277 277 277 277 277 277 277 277 277 277 277 277 277 276 276 276 276 276 276
275 275 275 275 276 277 276 276 277 277 277 276 276 276 275 274 275 275 275 275 275 275 275 275 274 274 274 274 274 274 274 274 274 275 275 274 274 274 275 275 275 276 276
274 275 274 274 275 275 275 275 275 275 275 275 274 273 273 274 275 275 274 274 274 273 273 273 273 273 272 272 272 273 273 273 273 273 273 273 273 273 273 273 273 273 273
274 274 274 273 273 273 273 272 272 272 272 272 272 272 273 272 273 273 273 272 272 272 272 272 272 272 272 272 272 272 272 272 272 272 272 272 272 272 273 273 273 273 273
273 273 273 272 272 272 272 272 272 272 272 271 271 271 271 271 271 271 271 271 271 270 270 270 270 270 270 270 270 269 269 269 270 269 269 269 269 269 270 270 270 270 270
271 271 271 270 270 270 270 270 270 269 269 269 269 269 269 268 269 269 269 269 268 268 268 268 268 268 268 268 268 268 269 269 268 268 268 268 268 268 269 269 269 269 270
269 269 268 268 268 268 268 268 268 268 268 268 268 267 267 267 267 267 267 267 267 266 267 267 267 267 267 267 267 267 267 267 267 267 268 268 268 268 268 268 269 269 269
267 267 267 267 266 266 266 266 266 266 265 265 265 265 265 265 266 266 266 266 266 266 266 266 266 267 267 266 267 267 267 267 267 268 268 268 268 268 268 269 269 269 269
Wind_Speed
8 9 10 10 10 11 12 12 13 15 15 16 17 17 17 18 17 18 19 21 20 21 22 21 23 23 23 24 21 20 17 10 3 4 9 12 13 12 8 8 11 14 16
8 8 9 10 10 10 11 11 11 13 14 15 15 16 17 17 17 16 18 17 16 17 16 16 20 19 21 20 17 19 20 12 6 3 9 9 12 20 15 11 9 11 11
7 7 8 8 9 10 10 10 10 11 13 13 13 12 14 16 16 15 15 14 13 12 11 11 13 13 13 16 18 14 19 14 11 9 8 10 6 16 16 13 11 11 11
7 6 7 7 7 8 8 9 8 8 10 10 11 12 12 13 14 13 11 10 9 8 6 6 8 10 12 13 14 13 11 11 9 7 6 5 8 14 15 12 10 11 11
7 6 6 6 5 6 6 6 6 5 7 8 9 11 11 13 14 13 9 7 6 6 6 5 6 6 8 10 10 12 8 9 8 9 4 6 5 6 17 14 13 12 10
7 7 6 5 5 4 4 5 5 6 7 7 8 11 11 11 13 12 10 9 8 8 8 9 8 7 7 11 12 8 3 7 8 4 4 4 8 8 14 15 11 6 2
8 7 6 5 4 4 4 4 4 5 7 9 10 8 9 10 9 10 11 11 11 12 12 12 13 15 13 11 7 7 6 2 3 8 8 7 7 13 19 20 12 5 3
10 9 8 7 7 7 6 7 7 6 6 7 8 8 8 7 10 9 7 6 7 9 9 9 9 9 10 10 9 13 16 14 8 1 3 3 1 6 12 13 17 12 6
15 14 12 11 11 10 10 8 7 8 8 8 8 8 8 8 9 9 7 5 5 5 6 8 7 9 10 8 6 8 9 12 15 13 11 13 11 9 8 11 11 11 3
20 18 16 15 14 13 12 11 9 8 9 9 9 9 8 8 8 8 8 6 5 5 4 4 6 7 8 6 5 3 4 5 5 7 10 12 13 14 11 8 13 7 5
21 20 19 17 17 15 13 12 11 10 10 11 12 12 12 10 8 7 6 5 5 5 5 5 4 4 5 6 5 3 1 2 3 5 7 7 6 5 5 2 5 5 3
23 23 23 21 20 18 17 16 14 13 13 13 13 14 12 11 11 9 8 7 8 9 8 8 7 7 5 4 4 3 2 2 4 5 4 3 2 1 2 5 7 10 13
25 27 28 25 24 23 21 20 17 15 15 14 12 12 12 12 12 11 11 11 9 9 9 11 12 10 9 8 5 4 6 3 4 3 4 5 7 7 6 7 9 11 12
26 27 29 29 27 26 25 22 20 17 14 13 13 13 15 14 13 12 11 11 11 12 13 13 12 12 13 13 14 10 10 10 8 8 7 7 9 9 8 9 10 10 13
23 22 23 23 25 24 26 26 25 27 23 17 17 15 13 13 14 12 10 10 10 11 12 15 16 15 15 14 14 14 13 12 12 12 12 12 12 13 13 13 13 12 12
18 18 19 19 19 19 20 20 25 26 22 23 23 20 21 19 16 13 13 14 14 13 14 14 14 14 13 13 13 12 12 13 14 14 13 12 12 11 11 10 13 13 13
18 18 17 17 17 17 17 17 15 15 19 21 22 22 21 22 19 18 17 17 17 15 18 18 17 16 14 14 13 12 12 11 10 11 13 12 12 12 12 12 13 14 14
16 16 17 15 15 14 14 14 14 12 10 10 11 13 14 14 14 14 14 14 15 15 18 16 14 13 12 12 12 12 12 11 12 13 14 14 13 13 13 14 15 15 15
13 11 10 11 11 13 12 12 11 11 10 10 10 11 11 10 11 11 11 14 12 11 11 12 11 10 10 10 10 10 10 10 10 11 12 14 15 17 17 16 16 17 18
12 11 10 9 10 9 9 10 10 9 8 7 7 7 7 9 7 6 7 8 9 9 8 9 10 10 10 9 9 9 10 10 10 9 9 10 12 12 12 12 11 11 13
14 11 10 7 6 6 6 5 5 4 4 4 4 4 6 8 8 6 6 6 7 8 8 8 9 9 9 9 8 8 8 8 8 8 9 9 10 10 11 12 12 13 13
14 13 11 9 8 7 6 5 4 3 3 4 4 4 5 4 4 4 5 5 6 6 6 7 7 7 7 7 7 8 8 8 7 7 6 6 8 9 10 12 14 14 14
16 15 14 14 12 11 10 11 11 11 10 9 8 7 7 6 6 6 6 6 6 6 7 9 10 11 11 12 12 13 14 14 14 14 13 12 11 12 12 14 16 16 15
15 15 14 14 15 13 13 12 11 12 11 10 9 8 7 7 7 7 8 8 9 9 10 10 11 12 13 13 13 13 13 13 12 13 13 13 13 12 11 12 12 12 13
15 14 14 14 14 13 12 11 10 9 9 8 8 9 10 10 11 13 14 15 16 17 17 17 17 18 18 18 18 17 17 17 17 17 17 16 16 14 13 14 14 14 14
14 13 12 12 12 11 11 11 11 11 12 13 14 15 16 17 19 20 21 21 22 22 22 22 22 21 21 21 21 19 18 18 17 16 16 16 16 16 15 15 14 14 14
Wind_Direction
302 303 301 299 298 295 291 290 296 298 300 298 294 292 296 296 296 288 287 290 287 285 285 283 287 287 284 281 281 260 219 179 141 199 225 219 212 210 194 175 158 142 121
300 303 303 304 302 298 296 297 302 300 299 297 299 299 300 298 294 290 290 292 289 285 285 288 289 295 287 287 287 277 266 243 189 115 214 210 218 198 204 202 187 169 164
298 303 304 304 303 302 304 307 308 306 307 308 307 305 307 314 312 304 298 298 295 283 284 288 289 287 295 296 298 289 278 263 210 167 161 186 207 194 188 195 195 184 170
289 299 301 304 303 303 306 310 309 317 314 323 323 327 339 333 330 328 319 314 306 304 305 308 308 309 308 305 299 299 289 264 234 191 157 180 187 183 205 203 207 205 190
283 292 295 301 301 311 312 319 327 333 327 340 344 348 355 353 351 347 339 345 346 347 359 7 359 346 4 342 309 296 295 259 214 188 168 178 177 178 185 203 208 205 210
270 277 286 296 309 321 338 352 355 355 352 356 4 1 5 10 9 15 14 16 20 27 23 27 32 22 36 55 48 37 302 277 256 217 205 205 178 195 174 181 178 167 198
263 270 271 277 285 299 323 332 350 348 340 346 350 349 348 356 359 17 30 39 41 37 38 31 31 37 33 30 29 48 61 67 255 253 254 224 201 194 192 182 180 157 179
255 259 261 265 270 281 288 299 309 315 321 330 333 337 335 346 357 353 7 15 27 34 38 32 29 19 26 28 40 61 65 59 40 88 203 208 234 177 191 192 182 154 127
248 250 250 254 263 273 281 289 298 306 311 314 316 324 328 328 349 355 358 0 17 29 37 31 23 15 27 47 53 69 66 71 69 58 83 101 110 124 142 155 159 130 112
244 247 250 251 254 261 269 273 279 285 292 298 299 300 305 311 321 342 352 350 346 356 13 41 43 34 27 40 37 65 82 61 72 97 85 88 110 125 143 167 164 144 80
250 248 245 246 250 254 257 259 267 276 279 283 290 294 293 292 298 309 326 333 321 328 332 337 351 31 39 34 28 35 64 71 42 41 56 76 95 120 119 157 196 187 170
253 248 245 246 246 251 254 257 261 269 275 279 278 284 285 282 285 291 293 303 311 312 313 313 316 313 320 344 3 2 35 26 355 352 356 355 332 312 211 211 221 222 220
256 252 251 251 250 248 250 256 258 259 260 264 263 267 271 275 281 285 284 283 274 272 290 298 303 306 304 297 278 242 244 265 270 272 270 281 278 257 256 262 259 258 260
256 258 255 252 252 251 249 248 245 241 238 241 244 253 269 272 272 272 275 281 284 284 290 293 290 283 281 281 282 282 271 274 269 266 262 259 265 267 272 264 263 267 263
255 255 249 246 249 247 248 243 241 250 245 238 242 247 244 252 268 269 270 280 290 295 296 295 298 298 297 294 289 287 281 272 273 279 278 281 282 287 290 290 288 293 291
264 261 251 244 242 238 241 250 251 249 252 250 250 253 262 265 264 263 267 270 273 272 271 262 274 271 268 275 279 282 282 282 281 282 282 279 277 274 272 263 253 242 241
268 268 268 256 243 244 239 241 253 257 248 248 251 254 254 261 264 268 270 271 269 266 258 257 260 259 256 253 255 255 260 268 278 271 272 279 282 280 275 264 257 252 238
289 279 273 271 267 255 253 252 251 252 255 252 258 249 254 258 263 266 268 272 268 254 252 255 261 268 273 272 270 269 268 264 256 253 258 258 259 261 264 264 262 257 254
309 296 289 282 276 275 269 266 259 260 256 263 268 271 283 274 273 270 265 258 259 260 258 263 267 270 271 274 278 280 281 281 279 279 274 267 261 248 244 249 252 255 256
325 319 315 296 288 280 270 264 261 255 258 263 267 276 283 297 298 284 273 271 275 278 278 277 281 285 287 287 286 284 283 283 284 283 285 289 294 298 305 302 305 290 268
337 333 333 332 319 309 302 297 295 295 292 299 301 297 296 289 299 314 306 294 290 295 297 296 293 290 288 288 291 290 286 284 286 288 289 288 291 294 296 296 296 297 298
356 356 359 360 1 360 356 353 354 356 358 357 358 353 346 341 331 327 320 312 306 301 300 299 299 296 294 291 293 290 286 286 286 281 281 296 306 299 294 287 278 272 276
16 18 21 22 23 29 33 34 34 35 34 33 28 23 18 9 355 343 332 325 312 301 289 286 283 279 277 280 278 277 275 274 273 276 285 288 290 285 286 292 290 294 301
27 30 30 29 29 29 29 28 27 27 26 21 16 11 2 350 338 325 316 307 303 297 292 287 283 282 284 283 281 279 276 276 276 277 280 279 279 283 281 283 289 292 295
26 30 30 28 26 21 19 18 16 12 6 359 348 339 330 322 314 308 304 302 299 297 295 292 288 287 285 284 281 279 278 276 275 273 271 270 271 272 273 279 282 286 288
26 28 26 24 20 15 8 358 352 347 340 334 328 323 319 316 313 311 309 307 304 301 299 296 294 293 290 285 282 281 279 275 272 267 260 257 258 265 266 266 271 280 287